Regional Weather Roundup
Issued by NWS

Home | Current Version | Previous Version | Text Only | Print | Product List | Glossary On
Versions: 1 2 3 4 5 6 7 8 9 10 11 12 13 14 15 16 17 18 19 20 21 22 23 24 25 26 27 28 29 30 31 32 33 34 35 36 37 38 39 40 41 42 43 44 45 46 47 48 49 50
000
ASUS43 KFSD 241710
RWRSD

WEATHER ROUNDUP FOR SOUTH DAKOTA
NATIONAL WEATHER SERVICE SIOUX FALLS SD
1200 PM CDT THU JUL 24 2014

NOTE: "FAIR" INDICATES FEW OR NO CLOUDS BELOW 12,000 FEET WITH NO
SIGNIFICANT WEATHER AND/OR OBSTRUCTIONS TO VISIBILITY.


SDZ001>005-009-010-012>017-241800-
NORTHWEST AND NORTH CENTRAL SOUTH DAKOTA

CITY           SKY/WX    TMP DP  RH WIND       PRES   REMARKS
BUFFALO          N/A     75  64  68 E17G23    29.76F
FAITH            N/A     78  64  61 SE15      29.82F
MOBRIDGE       PTSUNNY   75  63  66 SE13      29.86R
$$

SDZ012>016-024>037-041>051-057-063-072>074-241800-
SOUTHWEST AND SOUTH CENTRAL SOUTH DAKOTA

CITY           SKY/WX    TMP DP  RH WIND       PRES   REMARKS
RAPID CTY ARPT CLOUDY    81  69  67 SE6       29.81F
PIERRE         PTSUNNY   83  64  52 SE25G31   29.79F
CUSTER         MOSUNNY   88  46  23 W16G24    30.02S
ELLSWORTH AFB  CLOUDY    82  69  65 S5        29.81S
PHILIP         MOSUNNY   89  67  47 E8        29.77F
PINE RIDGE     MOSUNNY   91  65  41 VRB6      29.87F
WINNER         FAIR      87  66  49 S28G40    29.83F
$$

SDZ004>011-016>023-039-040-241800-
NORTHEAST SOUTH DAKOTA

CITY           SKY/WX    TMP DP  RH WIND       PRES   REMARKS
ABERDEEN       PTSUNNY   71  61  70 SE21G26   29.91F
WATERTOWN      PTSUNNY   72  61  68 SE15G28   29.97F
SISSETON         N/A     73  59  61 SE16G26   29.96F
$$

SDZ017-020-022-023-036>040-048>070-241800-
SOUTHEAST SOUTH DAKOTA

CITY           SKY/WX    TMP DP  RH WIND       PRES   REMARKS
SIOUX FALLS    TSTM      66  62  87 SE18      30.07R FOG
HURON          CLOUDY    73  63  70 SE18G30   29.91F
CHAMBERLAIN    MOSUNNY   78  65  63 SE22G30   29.88R
MITCHELL       PTSUNNY   77  65  66 SE14      29.96S
YANKTON        MOSUNNY   77  63  61 S24G32    29.99F
$$

ABBREVIATIONS USED IN REMARKS
   TC - TEMPERATURE IN CELSIUS
  WCI - WIND CHILL INDEX
   HX - HEAT INDEX
  VSB - VISIBILITY



USA.gov is the U.S. government's official web portal to all federal, state and local government web resources and services.